STARLINK-37548, 69027

Orbit data source: Space-Track

STARLINK-37548, 69027 is a payload satellite owned by SpaceX/Seattle (US) in SSO that was launched on Wed, 06 May 2026 UTC via an FALCON 9 launch vehicle from the Air Force Western Test Range (AFWTR). Payload-class satellites include a variety of spacecraft equipped with specific instruments for various scientific and technological missions. These include communications satellites like Starlink; space stations such as the ISS; scientific satellites like the Hubble; Earth observation satellites from companies like Planet Labs, Umbra, and HawkEye 360; GPS; miniature CubeSats for education and research; and military/defense satellites.

Loading next visibility...
Identifier
69027, 2026-101C
Orbit
SSO
Country
Flag of USUS
Related business
Manufacturer
SpaceX/Seattle
Mission
Operational Commercial Communications
Bus & Motor
STARLINK V2MO, Unknown motor
Mass
575 kg wet, ~530 kg dry
Launch date (UTC)
2026-05-06 (3 months ago)
Launch vehicle
FALCON 9
Launch site
Air Force Western Test Range (AFWTR)
Object type
Payload
Rocket body
Debris
Shape & HBR
Box + 2 Pan, 17.7 m
Radar Cross Section
36.964 m², Large (>1 m²)

Expand to show TLE details & history
Last TLE update: 15 hours ago

TLE from 15 hours ago
0 STARLINK-37548
1 69027U 26101C   26206.57194310  .00017817  00000-0  55309-3 0  9999
2 69027  97.2862  60.8497 0001891  95.9707 264.1751 15.33433153 12459
Epoch: 2026-07-25T13:43Z
TLE epoch observation values (Epoch: 2026-07-25T13:43:35.883Z)
Latitude
-0.00008°
Longitude
-88.33211°
Altitude
468.822 km
Speed
7.632 km/s
True Right ascension
04h 03m 23s
True Declination
0° 00' 00"
Sunlit
Object was in daylight at epoch
Visualization orbit readout
Latitude
Unknown
Longitude
Unknown
Altitude
Unknown
Speed
Unknown
Apparent Right ascension
Unknown
Apparent Declination
Unknown
Sunlit
N/A
Visualization observer readout
Local Sidereal Time
18:03:41
Azimuth
Unknown
Elevation
Unknown
Doppler factor
Unknown
Orbital elements
Apogee altitude
463.815 km
Perigee altitude
461.228 km
Semi-major axis
6,840.658 km
Eccentricity
0.00019
Inclination
97.2862°
RAAN
60.8497°
Arg. of periapsis
95.9707°
True anomaly
264.15354°
Mean anomaly
264.1751°
Eccentric anomaly
264.16432°
Mean motion
3.83616 °/min
Orbital period
93.84 mins
BSTAR
0.00055309
Loading maneuver chart data...
Computing Atmospheric mass density...
Loading historical data...
Loading historical data...
Loading historical data...
Loading historical data...
Loading historical data...
Loading historical data...
Loading historical data...

Documentation

Showing up to 5 results
|